Bloomington, IL

8:22 AM CDT on April 24, 2017 (GMT -0500)
Central Ill Regional

Weather History for KBMI - January, 2014

Change the Weather History Date:

Friday, January 17, 2014

  Actual Average Record
Temperature  
Mean Temperature 10 °F -  
Max Temperature 14 °F 18 °F 53 °F (2012)
Min Temperature 5 °F 3 °F -21 °F (1977)
Degree Days  
Heating Degree Days 56    
Moisture  
Dew Point 4 °F    
Average Humidity 76    
Maximum Humidity 85    
Minimum Humidity 69    
Precipitation  
Precipitation 0.00 in - - ()
Sea Level Pressure  
Sea Level Pressure 29.97 in    
Wind  
Wind Speed 17 mph (West)    
Max Wind Speed 25 mph    
Max Gust Speed 31 mph    
Visibility 6 miles    
Events Snow    
Averages and records for this station are not official NWS values.
T = Trace of Precipitation, MM = Missing Value Source: NWS Daily Summary

Daily Weather History Graph

Daily Weather History Graph

Search for Another Location

Airport or City:

Trip Planner

Search our weather history database for the weather conditions in past years. The results will help you decide how hot, cold, wet, or windy it might be!

Date:

Astronomy

Jan. 17, 2014 Rise Set
Actual Time 7:16 AM CST 4:55 PM CST
Civil Twilight 6:46 AM CST 5:25 PM CST
Nautical Twilight 6:12 AM CST 5:59 PM CST
Astronomical Twilight 5:40 AM CST 6:31 PM CST
Moon 6:42 PM CST (1/17) 7:43 AM CST (1/17)
Length of Visible Light 10h 39m
Length of Day
9h 39m
Full, 98% of the Moon is Illuminated
Jan 17
Full
Jan 23
Last Quarter
Jan 30
New
Feb 6
First Quarter
Feb 14
Full

Hourly Weather History & Observations

Time (CST) Temp. Windchill Dew Point Humidity Pressure Visibility Wind Dir Wind Speed Gust Speed Precip Events Conditions
12:56 AM 14.0 °F -5.5 °F 6.1 °F 71% 29.84 in 10.0 mi WNW 25.3 mph 31.1 mph 0.00 in Snow Light Snow
1:19 AM 12.2 °F -5.3 °F 5.0 °F 73% 29.79 in 10.0 mi NW 18.4 mph 27.6 mph 0.00 in Snow Light Snow
1:56 AM 12.0 °F -5.1 °F 5.0 °F 73% 29.86 in 6.0 mi WNW 17.3 mph 27.6 mph 0.00 in Snow Light Snow
2:17 AM 10.4 °F -6.6 °F 5.0 °F 79% 29.81 in 3.0 mi WNW 16.1 mph - 0.00 in Snow Light Snow
2:36 AM 10.4 °F -5.4 °F 6.8 °F 85% 29.82 in 2.0 mi WNW 13.8 mph - 0.00 in Snow Light Snow
2:40 AM 10.4 °F -6.6 °F 6.8 °F 85% 29.82 in 1.8 mi West 16.1 mph - 0.00 in Snow Light Snow
2:48 AM 10.4 °F -7.2 °F 5.0 °F 79% 29.82 in 1.2 mi West 17.3 mph - 0.00 in Snow Light Snow
2:56 AM 10.0 °F -6.5 °F 5.0 °F 80% 29.90 in 2.5 mi West 15.0 mph - 0.00 in Snow Light Snow
3:05 AM 8.6 °F -10.0 °F 5.0 °F 85% 29.83 in 4.0 mi West 18.4 mph - 0.00 in Snow Light Snow
3:40 AM 8.6 °F -8.9 °F 3.2 °F 79% 29.83 in 5.0 mi West 16.1 mph - 0.00 in Snow Light Snow
3:56 AM 9.1 °F -7.0 °F 3.0 °F 76% 29.91 in 5.0 mi West 13.8 mph - 0.00 in Snow Light Snow
4:43 AM 8.6 °F -10.0 °F 1.4 °F 73% 29.85 in 5.0 mi West 18.4 mph - 0.00 in Snow Light Snow
4:56 AM 8.1 °F -10.7 °F 2.1 °F 77% 29.92 in 9.0 mi West 18.4 mph - 0.00 in Snow Light Snow
5:43 AM 6.8 °F -10.7 °F -0.4 °F 72% 29.86 in 10.0 mi West 15.0 mph - 0.00 in Snow Light Snow
5:56 AM 5.0 °F -13.0 °F -0.9 °F 76% 29.94 in 10.0 mi West 15.0 mph - 0.00 in Snow Light Snow
7:56 AM 5.0 °F -13.6 °F -0.9 °F 76% 29.98 in 10.0 mi West 16.1 mph - N/A   Clear
8:56 AM 6.1 °F -12.8 °F -0.9 °F 73% 30.00 in 10.0 mi West 17.3 mph - N/A   Clear
9:56 AM 7.2 °F -10.8 °F -0.9 °F 69% 30.02 in 10.0 mi WNW 16.1 mph - N/A   Mostly Cloudy
10:56 AM 8.1 °F -8.4 °F 2.1 °F 77% 30.04 in 3.0 mi WNW 13.8 mph - 0.00 in Snow Light Snow
11:56 AM 10.0 °F -7.1 °F 2.1 °F 70% 30.03 in 4.0 mi West 16.1 mph - 0.00 in Snow Light Snow
12:56 PM 10.0 °F -5.9 °F 5.0 °F 80% 30.03 in 3.0 mi West 13.8 mph - 0.00 in Snow Light Snow
1:56 PM 11.1 °F -5.7 °F 4.1 °F 73% 30.04 in 2.0 mi West 16.1 mph - 0.00 in Snow Light Snow
2:56 PM 11.1 °F -5.1 °F 3.0 °F 70% 30.06 in 2.0 mi West 15.0 mph 19.6 mph 0.00 in Snow Light Snow
3:21 PM 10.4 °F -6.6 °F 3.2 °F 73% 29.98 in 4.0 mi West 16.1 mph - 0.00 in Snow Light Snow
3:56 PM 11.1 °F -5.7 °F 4.1 °F 73% 30.09 in 4.0 mi West 16.1 mph 21.9 mph 0.00 in Snow Light Snow
4:56 PM 11.1 °F -5.7 °F 5.0 °F 76% 30.11 in 4.0 mi West 16.1 mph 20.7 mph 0.00 in Snow Light Snow
5:56 PM 11.1 °F -5.1 °F 5.0 °F 76% 30.12 in 4.0 mi West 15.0 mph - 0.00 in Snow Light Snow
6:03 PM 10.4 °F -4.8 °F 5.0 °F 79% 30.03 in 6.0 mi West 12.7 mph - 0.00 in Snow Light Snow
6:56 PM 11.1 °F -3.2 °F 5.0 °F 76% 30.13 in 10.0 mi West 11.5 mph 19.6 mph 0.00 in Snow Light Snow
7:08 PM 10.4 °F -4.1 °F 5.0 °F 79% 30.03 in 10.0 mi West 11.5 mph 19.6 mph 0.00 in Snow Light Snow
7:56 PM 11.1 °F -3.9 °F 5.0 °F 76% 30.13 in 10.0 mi West 12.7 mph - 0.00 in Snow Light Snow
8:56 PM 12.0 °F -2.7 °F 5.0 °F 73% 30.12 in 10.0 mi West 12.7 mph - 0.00 in   Overcast
9:03 PM 12.2 °F -2.5 °F 5.0 °F 73% 30.03 in 10.0 mi West 12.7 mph - N/A   Overcast
9:56 PM 12.0 °F -3.4 °F 5.0 °F 73% 30.12 in 10.0 mi West 13.8 mph - N/A   Overcast
10:56 PM 11.1 °F -3.2 °F 4.1 °F 73% 30.10 in 10.0 mi West 11.5 mph - N/A   Scattered Clouds
11:56 PM 9.1 °F 0.8 °F 3.0 °F 76% 30.09 in 10.0 mi WSW 4.6 mph - N/A   Clear